Regional Weather Roundup
Issued by NWS

Home | Current Version | Previous Version | Text Only | Print | Product List | Glossary Off
Versions: 1 2 3 4 5 6 7 8 9 10 11 12 13 14 15 16 17 18 19 20 21 22 23 24 25 26 27 28 29 30 31 32 33 34 35 36 37 38 39 40 41 42 43 44 45 46 47 48 49 50

000
ASUS45 KABQ 031801
RWRNM
WEATHER ROUNDUP FOR NEW MEXICO
NATIONAL WEATHER SERVICE ALBUQUERQUE NM
1100 AM MST TUE MAR 03 2015

NOTE: "FAIR" MEANS FEW OR NO CLOUDS BELOW 12,000 FEET AGL WITH NO
       SIGNIFICANT WEATHER OR OBSTRUCTIONS TO VISION.

      THIS PRODUCT IS RELEASED AS TWO VERSIONS.  ONE VERSION NEAR
      THE TOP OF THE HOUR CONTAINING PRELIMINARY DATA FROM ALBUQUERQUE
      AND OTHER STATIONS.  A FINAL VERSION WITH ADDITIONAL DATA IS
      ISSUED ABOUT 10 MINUTES AFTER THE HOUR.

NMZ501-503-504-510>518-031900-
NORTHWEST PLATEAU/NORTHCENTRAL MOUNTAINS

CITY           SKY/WX    TMP DP  RH WIND       PRES   REMARKS
FARMINGTON     PTSUNNY   39  27  62 SE6       29.87F WCI  35
6HR MIN TEMP:  28; 6HR MAX TEMP:  41;

SANTA FE       MOSUNNY   42  25  50 SW14G21   29.89F
6HR MIN TEMP:  30; 6HR MAX TEMP:  42;

TAOS           MOSUNNY   34  19  55 W7        29.90F WCI  28
ANGEL FIRE     FAIR      31  19  61 W13       29.84F WCI  22

$$
NMZ402-403-502-505>509-031900-
WESTCENTRAL MOUNTAINS/SOUTHWEST MOUNTAINS

CITY           SKY/WX    TMP DP  RH WIND       PRES   REMARKS
GALLUP         CLOUDY    37  26  64 SW10      29.91S WCI  30
6HR MIN TEMP:  29; 6HR MAX TEMP:  38;

SILVER CITY    MOSUNNY   50  36  57 W10G17    29.94F

$$
NMZ407-409-411-412-031900-
SOUTHERN DESERTS

CITY           SKY/WX    TMP DP  RH WIND       PRES   REMARKS
DEMING         PTSUNNY   51  43  74 W6        29.94S
6HR MIN TEMP:  45; 6HR MAX TEMP:  51; 6HR PCP:  0.13;

HOLLOMAN AFB   LGT RAIN  51  50  94 SW7       29.91F
ALAMOGORDO     LGT RAIN  50  46  87 SE6       29.94F
T OR C         PTSUNNY   49  43  80 SE7       29.90F
6HR MIN TEMP:  42; 6HR MAX TEMP:  49; 6HR PCP:  0.06;


$$
NMZ519>523-031900-
CENTRAL VALLEYS/CENTRAL HIGHLANDS

CITY           SKY/WX    TMP DP  RH WIND       PRES   REMARKS
ALBUQUERQUE    PTSUNNY   45  28  51 CALM      29.90F
6HR MIN TEMP:  40; 6HR MAX TEMP:  45;

DOUBLE EAGLE   PTSUNNY   43  28  56 SW8       29.91F
CLINES CORNERS PTSUNNY   41  28  60 W24       29.87S
6HR MIN TEMP:  30; 6HR MAX TEMP:  41;

BELEN          FAIR      47  32  56 CALM      29.90F
6HR MIN TEMP:  38; 6HR MAX TEMP:  47;

SOCORRO        NOT AVBL

$$
NMZ524>526-539-540-031900-
SOUTHCENTRAL MOUNTAINS

CITY           SKY/WX    TMP DP  RH WIND       PRES   REMARKS
RUIDOSO        NOT AVBL

$$
NMZ527>531-031900-
NORTHEAST HIGHLANDS/NORTHEAST PLAINS

CITY           SKY/WX    TMP DP  RH WIND       PRES   REMARKS
LAS VEGAS      PTSUNNY   42  21  43 SW22G38   29.85S
6HR MIN TEMP:  33; 6HR MAX TEMP:  43;

RATON          MOSUNNY   47  18  31 SW20      29.79S
6HR MIN TEMP:  35; 6HR MAX TEMP:  47;

CLAYTON        PTSUNNY   49  24  37 W12       29.82S
6HR MIN TEMP:  36; 6HR MAX TEMP:  50;


$$
NMZ532>537-031900-
EASTCENTRAL PLAINS

CITY           SKY/WX    TMP DP  RH WIND       PRES   REMARKS
TUCUMCARI      CLOUDY    53  33  46 W18       29.84F
6HR MIN TEMP:  37; 6HR MAX TEMP:  53;

CANNON AFB     DRIZZLE   47  37  67 W8        29.88R
6HR MIN TEMP:  34; 6HR MAX TEMP:  47; 6HR PCP: TRACE;

CLOVIS AIRPORT CLOUDY    48  37  66 NW13      29.87S

$$
NMZ028-029-538-031900-
SOUTHEAST PLAINS

CITY           SKY/WX    TMP DP  RH WIND       PRES   REMARKS
ROSWELL        LGT RAIN  43  38  82 NW5       29.92S
6HR MIN TEMP:  37; 6HR MAX TEMP:  43; 6HR PCP: TRACE;

ARTESIA        CLOUDY    39  39 100 NW6       29.93S FOG     WCI  35
CARLSBAD       CLOUDY    47  39  74 NW9       29.89F
6HR MIN TEMP:  39; 6HR MAX TEMP:  47;

HOBBS          MOSUNNY   46  46 100 N6        29.91S


$$


USA.gov is the U.S. government's official web portal to all federal, state and local government web resources and services.